Вернуться в каталог

KUIPER-00214

АктивенСвязьLEO
NORAD 67778·PAYLOAD·🇺🇸 United States

Запущен Feb 12, 2026 с Guiana Space Centre

Loading…

Ближайшие Пролёты (ближайшие 24 часа)

TLE

СвежийSource: CelesTrak SupGP

Эпоха: Sep 14, 2026, 14:59 UTC

1 67778C 26030Q   26257.62443287 -.00002127  00000+0 -27846-3 0  2574
2 67778  51.8986  87.7225 0000712 106.1071 144.8780 14.79922921    10

Отслеживайте KUIPER-00214 в реальном времени с AllMySat

Download on the App Store